Temperature
21 20 20 21 26 27 26 26 26 25 25 24 23 24 24 24 24 22 20 19 18 18 18 18 18 18 18 18 18 18 18 18 19 19 19 18 18 18 18 19 18 18 18 18 18 18 18 18 18
21 20 21 25 28 27 25 26 26 25 24 24 23 24 24 23 21 21 19 19 18 18 18 18 18 18 18 18 18 18 18 18 19 19 19 19 19 18 18 18 18 18 18 18 18 18 18 18 18
21 21 24 28 28 27 25 26 25 25 24 24 24 23 23 22 21 20 19 19 19 18 18 18 19 19 18 18 18 18 18 18 18 18 18 18 19 18 18 18 18 18 18 18 18 18 18 18 18
21 24 27 29 27 27 27 26 26 25 24 24 24 24 22 20 20 20 19 19 19 19 18 18 19 19 18 18 18 18 18 18 18 18 18 18 18 18 18 18 18 18 18 18 18 18 18 18 18
23 28 30 28 27 27 27 27 26 26 25 24 24 24 22 20 20 19 19 19 19 19 19 18 19 19 19 18 18 18 18 18 18 18 18 18 18 19 18 18 18 18 18 18 18 18 18 18 18
27 30 29 28 27 27 27 26 26 26 25 24 24 24 22 20 20 19 19 19 19 19 19 18 19 19 19 19 18 18 18 18 18 18 18 18 18 18 18 18 18 18 18 18 18 18 18 18 18
29 30 29 29 28 27 27 26 27 26 26 25 24 25 22 20 20 20 19 19 19 19 19 19 19 19 19 18 18 18 18 18 18 18 18 18 18 18 18 18 18 18 18 18 18 18 18 18 18
28 31 30 29 28 27 27 27 26 26 25 24 24 25 23 20 20 20 19 19 19 19 19 19 19 18 18 18 18 18 18 18 18 18 18 18 18 18 18 18 18 18 18 18 18 18 18 18 18
28 31 30 29 29 28 28 27 26 25 25 24 23 23 22 20 20 20 20 19 19 19 19 19 19 19 18 18 18 18 18 18 18 18 18 18 18 18 18 18 18 18 18 18 18 18 18 18 17
30 30 30 30 30 29 28 28 27 26 26 24 23 22 21 21 20 20 20 20 19 19 19 19 19 19 19 18 18 18 18 18 18 18 18 18 18 18 18 18 18 18 18 18 18 18 18 17 17
31 30 30 30 29 29 29 28 27 27 27 25 24 22 21 21 21 21 20 20 19 19 19 19 19 18 18 18 18 18 18 18 18 18 18 18 18 18 18 18 18 18 18 18 18 17 17 17 17
30 30 30 29 29 29 29 28 27 27 26 25 23 22 22 21 21 21 20 20 20 19 19 19 19 18 18 18 18 18 18 18 18 18 18 18 18 18 18 18 18 18 17 17 17 17 17 17 17
30 30 29 29 29 28 28 28 27 26 25 24 23 22 22 22 21 21 20 20 20 19 19 19 19 18 18 18 18 18 18 18 18 18 18 18 18 18 18 18 18 18 18 17 17 17 17 17 17
31 30 30 29 29 28 29 28 28 26 25 24 23 23 22 22 22 21 20 20 20 19 19 19 18 18 18 18 18 18 18 18 18 18 18 18 18 18 18 18 18 18 17 17 17 17 17 17 17
30 31 30 30 29 29 29 29 28 26 25 25 24 23 22 22 21 21 20 20 20 19 19 19 19 18 18 18 18 18 18 18 18 18 18 18 18 18 18 18 18 17 17 17 17 17 17 17 17
31 31 31 30 30 29 30 29 29 26 26 25 25 24 23 22 22 21 21 20 20 19 19 19 19 19 18 18 18 18 18 18 18 18 18 18 18 17 18 18 18 17 17 17 17 17 17 17 17
32 31 31 31 31 30 30 30 29 27 27 26 25 24 23 23 22 21 21 20 20 19 19 19 19 19 18 18 18 18 18 18 18 18 18 18 18 17 17 18 18 17 17 17 17 17 17 17 17
31 32 31 31 31 30 30 30 29 27 27 27 26 25 24 23 22 21 21 20 20 19 19 19 19 19 18 18 18 18 18 18 18 18 18 18 18 18 17 18 17 17 17 17 17 17 17 17 17
32 32 31 31 31 30 30 30 30 29 28 27 27 26 25 24 23 22 21 21 20 19 19 19 19 19 18 18 18 18 18 18 18 18 18 18 18 18 18 17 17 17 17 17 17 17 17 17 17
31 31 31 31 31 31 31 31 31 30 28 28 27 26 25 24 23 22 21 21 20 20 19 19 19 19 19 19 18 18 18 18 18 18 18 18 18 18 18 18 17 17 17 17 17 17 17 17 17
31 32 31 31 31 31 31 31 30 30 29 28 27 27 26 25 24 23 22 21 21 20 20 20 19 19 19 19 19 18 18 18 18 18 18 18 18 18 18 18 17 17 17 17 17 17 17 17 17
31 32 31 31 31 31 31 31 31 31 30 29 28 27 27 26 25 23 22 22 21 21 20 20 19 19 19 19 19 19 19 19 18 18 18 18 18 18 18 18 18 17 17 17 17 17 17 17 17
31 31 31 31 31 31 31 31 32 31 30 30 29 28 27 26 25 24 23 22 22 21 21 20 20 20 19 19 19 19 19 19 18 18 18 18 18 18 18 17 18 17 17 17 17 17 17 17 17
31 31 31 31 32 31 31 31 31 32 31 31 30 28 27 26 25 24 23 22 22 21 21 21 20 20 20 19 19 19 19 19 18 18 18 18 18 18 18 17 18 17 17 17 17 17 17 17 17
31 31 31 30 30 31 31 31 31 31 31 31 30 29 28 27 26 25 24 23 22 22 21 21 20 20 20 20 19 19 19 19 19 18 18 18 18 18 18 18 18 18 18 18 17 17 17 17 17
31 32 30 30 30 31 31 31 31 31 31 30 29 29 27 27 26 25 24 23 22 22 22 21 21 20 20 20 20 19 19 19 19 19 18 18 18 18 18 18 18 18 18 17 17 17 17 17 17
31 32 33 31 31 31 31 31 31 31 31 30 29 29 28 27 26 25 24 23 23 22 22 21 21 21 20 20 20 20 19 19 19 19 19 18 18 18 18 18 18 18 18 17 17 17 17 17 17
32 32 31 31 29 30 31 31 31 31 31 30 30 29 28 27 26 25 24 23 23 22 22 21 21 21 21 20 20 19 19 19 19 18 18 18 18 18 18 18 18 17 17 17 17 17 17 17 17
30 31 31 31 31 30 30 31 32 31 31 30 30 29 27 26 26 25 24 23 22 22 22 21 21 21 21 20 20 19 19 19 19 19 18 18 18 18 18 18 18 18 17 17 17 17 17 16 16
31 31 31 30 30 30 31 31 32 31 31 30 30 28 27 26 25 25 24 23 22 22 21 21 21 21 21 20 20 20 19 19 19 19 19 18 18 18 18 18 18 17 17 17 17 17 17 16 16
Wind_Speed
11 8 5 4 2 7 13 10 9 8 6 7 7 6 7 8 7 6 5 5 4 4 5 7 7 6 6 7 7 7 7 7 7 7 7 8 8 9 9 10 10 10 11 11 12 12 13 13 14
7 5 5 3 4 11 12 10 11 10 8 6 6 7 8 8 7 6 5 5 4 5 5 7 7 6 7 7 8 8 7 7 7 7 7 7 8 8 9 10 10 10 11 11 11 11 12 13 13
6 5 3 3 10 11 11 10 11 10 7 5 5 6 6 6 6 5 6 5 5 5 6 8 7 7 7 7 7 8 7 7 7 7 7 7 7 8 9 9 10 10 10 10 11 11 11 12 13
4 4 2 8 15 13 11 10 9 9 8 7 6 7 7 6 4 6 7 5 6 6 6 9 7 6 7 7 7 7 8 7 6 6 7 7 8 8 9 9 9 9 10 10 10 10 11 12 13
4 1 8 13 15 12 10 9 7 8 7 7 7 9 8 7 8 8 7 6 6 6 6 8 7 6 6 7 7 7 7 7 6 7 8 8 8 9 9 9 9 9 9 9 9 9 11 12 13
2 2 9 13 13 10 9 7 8 10 10 8 7 9 7 7 7 7 6 5 5 6 6 7 7 6 6 6 6 6 6 6 6 7 8 8 8 9 9 9 9 9 9 8 8 7 10 12 13
3 7 12 13 12 11 8 6 8 9 8 7 5 8 7 7 7 6 6 5 5 5 5 5 5 6 6 7 6 6 6 6 7 7 7 7 8 8 9 9 9 9 9 8 7 8 10 11 13
1 4 11 11 11 11 8 7 6 7 8 6 3 5 6 7 7 6 6 5 5 4 4 4 4 4 4 6 7 6 6 6 6 6 6 7 8 9 10 9 10 10 10 8 8 9 11 11 12
1 6 11 10 9 9 7 7 7 6 8 7 6 7 9 10 8 6 6 5 4 4 4 3 4 4 4 5 6 5 5 5 4 6 6 5 6 8 9 10 10 10 9 9 8 10 11 12 13
2 9 12 9 8 8 7 7 7 7 8 7 8 9 11 9 7 6 5 5 4 4 3 3 3 4 4 4 4 3 4 5 4 5 5 4 5 5 7 11 10 10 10 10 10 11 10 8 9
7 10 9 8 8 7 8 8 6 6 7 6 8 10 10 8 7 5 4 4 4 3 3 3 3 3 3 3 4 4 3 4 4 5 4 5 4 5 5 6 8 8 8 7 9 8 7 7 7
7 8 7 8 7 6 8 8 8 7 9 8 10 11 10 8 6 5 4 3 3 3 3 3 3 3 3 3 3 3 4 4 4 4 4 4 4 4 4 4 5 6 6 6 6 6 8 8 8
6 7 7 7 7 7 7 8 8 9 9 9 10 10 9 7 6 5 4 4 3 3 3 3 3 3 3 3 2 4 4 4 5 4 5 4 4 4 5 4 4 5 6 6 6 6 7 7 7
7 7 6 6 7 6 7 7 6 8 8 9 9 9 8 6 5 5 4 3 2 2 3 3 3 3 3 3 3 3 4 4 4 4 5 5 4 5 4 5 4 5 5 6 6 7 6 6 6
6 7 7 6 5 4 4 6 5 8 8 9 8 8 7 6 5 4 4 3 3 2 2 3 3 3 3 3 3 3 4 4 4 5 6 5 5 5 4 4 5 5 6 6 6 6 6 6 6
5 4 5 6 3 3 3 6 7 8 8 8 7 7 7 6 5 4 4 4 3 3 3 2 2 3 3 3 3 3 4 4 4 5 5 5 5 5 4 4 5 5 5 5 5 5 5 5 5
4 3 5 6 3 2 2 5 7 7 7 7 7 7 7 6 5 5 5 5 4 4 3 3 2 3 3 3 3 4 4 4 4 4 4 5 5 5 4 4 5 5 4 4 4 5 4 5 5
3 3 3 4 4 3 2 3 6 7 7 7 7 7 7 7 7 6 5 5 5 4 4 3 3 3 3 3 4 4 4 4 4 4 4 4 4 4 4 4 4 4 4 4 4 5 4 4 4
1 1 3 4 3 3 2 1 4 7 7 7 7 7 7 6 7 7 6 6 5 5 4 4 4 3 2 2 2 3 4 3 3 4 4 4 4 4 3 3 4 3 4 4 5 4 5 3 4
3 2 2 4 3 2 1 2 3 6 7 7 7 7 8 8 8 8 7 7 7 6 5 5 5 4 3 3 2 2 2 3 3 3 4 3 3 3 4 3 3 4 4 4 4 3 2 2 2
5 3 1 1 2 4 3 3 5 6 7 7 7 7 8 9 9 9 9 8 8 7 7 5 5 5 4 4 3 3 3 2 2 3 3 3 3 3 2 3 3 3 3 4 4 4 3 2 2
5 2 2 2 4 1 2 1 4 5 7 7 8 8 9 9 10 10 10 10 9 8 7 7 6 5 5 5 3 3 3 2 2 2 2 3 3 3 3 3 3 3 3 3 4 3 3 3 2
2 2 3 4 4 4 2 3 3 5 4 6 7 8 9 9 10 10 10 10 9 8 8 7 7 6 6 5 4 4 3 3 2 2 3 2 3 3 3 4 4 4 3 3 3 3 4 3 3
5 5 4 6 6 4 1 4 1 3 2 3 6 6 7 9 10 10 10 9 9 9 8 8 8 7 6 6 5 5 4 3 3 3 3 3 3 3 4 4 4 5 4 4 4 4 5 4 4
9 8 6 6 5 2 1 4 1 2 1 2 4 6 7 9 10 10 10 10 10 10 9 8 8 8 7 7 6 6 5 5 4 4 4 3 3 3 3 3 4 4 4 4 4 4 4 4 4
11 10 7 5 4 2 4 3 1 2 2 3 4 6 7 8 9 10 10 10 10 10 10 9 9 8 7 7 6 6 6 5 4 4 3 3 3 2 3 4 4 4 4 4 4 4 4 4 5
9 10 7 7 6 6 2 2 2 3 3 4 5 6 7 8 9 9 10 10 10 10 10 10 9 8 7 7 6 6 5 5 3 3 4 3 3 3 3 4 4 4 4 4 4 4 4 4 5
7 7 7 7 6 6 4 4 2 3 4 5 6 6 7 7 7 8 9 9 9 9 9 9 9 8 7 7 6 5 5 5 4 4 3 2 3 2 3 4 4 4 4 4 5 5 5 5 5
9 10 8 7 7 8 5 2 1 2 3 4 5 6 6 6 7 7 8 8 9 8 9 8 8 8 7 7 6 5 5 4 4 3 3 3 3 3 4 4 4 4 5 5 5 6 5 6 6
10 11 11 9 7 8 7 2 3 2 3 4 4 5 5 6 6 7 8 8 8 8 8 8 7 7 7 7 6 5 4 4 4 3 3 3 3 3 3 4 4 5 5 5 6 7 6 7 7
Wind_Direction
174 183 210 232 194 82 69 67 76 78 71 66 62 60 62 47 39 75 80 76 65 70 83 90 75 68 70 73 79 83 82 87 95 100 103 112 118 119 124 125 129 135 139 140 146 147 148 148 146
170 191 226 232 84 82 70 69 73 70 84 91 77 70 71 66 57 84 88 77 79 78 86 81 78 71 68 70 75 78 76 81 92 97 95 106 119 121 124 129 130 133 138 139 142 146 151 150 148
183 226 256 77 67 71 78 77 82 85 81 77 80 65 59 66 75 79 85 98 97 87 82 87 79 70 66 68 73 74 74 77 88 95 97 100 113 125 128 129 131 135 139 141 142 147 153 155 154
218 219 173 82 76 71 83 92 97 98 83 73 86 84 75 58 69 88 103 101 99 94 89 89 80 70 63 66 72 72 73 74 79 92 98 97 104 119 123 123 127 133 140 142 143 148 154 157 157
238 155 96 85 79 80 83 88 94 88 82 80 83 91 82 74 87 98 102 97 89 86 86 92 83 71 64 68 71 69 67 67 73 85 94 98 99 106 113 119 123 128 135 136 139 145 151 154 154
227 105 85 83 86 88 85 91 95 90 93 94 95 97 84 92 99 101 96 88 84 82 84 88 100 85 75 77 74 68 63 61 67 80 91 95 98 108 118 122 126 126 129 131 132 135 145 151 154
59 75 80 85 90 89 86 88 86 92 91 82 91 96 101 105 103 104 103 99 87 80 80 82 90 102 104 94 79 70 64 65 65 73 92 103 103 109 118 122 124 124 125 126 126 129 135 145 151
5 94 86 82 84 85 94 94 85 87 88 91 82 91 113 125 122 114 108 101 94 84 75 75 75 78 87 95 96 86 79 75 75 80 99 112 118 118 123 124 121 121 123 124 129 132 135 133 136
244 88 76 72 78 94 108 107 96 93 101 91 75 79 110 128 128 120 113 106 95 81 71 73 85 85 78 78 92 111 114 101 102 98 101 124 114 113 121 104 113 122 123 122 123 126 127 131 130
68 72 68 65 76 99 107 102 108 117 110 104 101 101 119 132 134 127 119 110 94 80 82 76 70 70 76 73 85 85 89 94 90 86 96 103 100 102 106 112 114 116 118 119 116 119 130 137 127
72 74 76 78 82 96 103 101 105 111 102 109 123 129 135 138 137 132 120 105 99 99 92 94 85 60 55 69 73 73 73 83 91 90 99 103 109 114 113 120 125 124 129 122 120 124 111 108 105
89 82 81 84 89 95 97 104 99 86 85 105 122 136 143 147 146 137 127 115 108 94 86 81 86 86 60 52 69 79 77 78 78 84 78 92 94 98 102 104 109 118 115 116 113 110 106 107 113
100 95 90 94 98 96 106 103 99 98 104 118 128 139 144 145 144 139 133 129 115 107 95 86 79 78 73 65 46 70 72 74 82 80 81 81 91 94 99 100 101 108 114 125 122 116 115 114 112
105 106 106 110 108 115 115 112 112 113 125 131 139 143 146 146 149 143 141 139 135 125 106 96 93 89 79 76 71 72 79 86 79 80 78 79 90 92 97 107 105 105 107 109 115 121 119 113 109
132 125 119 115 121 128 139 117 113 129 142 143 148 148 149 152 156 157 154 152 146 137 112 111 113 100 89 74 73 81 85 88 82 84 81 83 93 98 103 108 111 104 109 118 121 119 117 119 117
165 158 118 115 131 147 217 92 117 145 156 152 154 155 159 160 162 161 160 162 157 152 142 139 127 116 109 90 73 79 81 87 87 89 90 89 91 99 105 106 106 107 113 118 119 124 121 119 120
176 127 102 120 144 155 197 92 123 158 166 160 161 162 167 166 167 164 166 170 166 162 157 153 137 126 121 118 114 101 97 90 88 87 88 96 101 106 110 103 103 118 116 119 122 119 123 125 125
137 119 107 109 140 182 184 104 135 168 179 171 170 168 172 175 176 172 174 173 165 162 160 155 147 140 140 136 126 110 102 104 98 95 92 96 109 114 118 117 117 125 119 120 117 119 120 126 135
140 135 107 98 123 193 208 196 155 169 188 186 181 178 179 181 172 171 176 176 171 170 168 166 162 151 151 131 131 120 119 115 109 111 108 113 115 118 119 116 121 127 124 128 134 133 137 139 140
202 198 151 126 136 222 269 248 177 178 192 195 189 186 185 181 175 174 178 180 181 180 180 177 176 171 171 143 130 126 118 121 115 113 116 122 128 134 140 135 144 136 137 145 147 155 157 160 170
219 235 211 136 165 204 268 191 160 172 188 193 199 195 192 189 184 182 184 187 187 187 188 184 182 178 180 169 158 145 143 145 134 137 140 147 151 149 143 155 159 160 175 164 171 180 194 191 186
210 210 242 224 239 218 283 1 130 161 179 194 200 200 199 194 190 187 187 189 192 190 186 185 184 186 186 188 182 173 164 155 144 167 146 157 164 165 165 171 178 191 188 177 199 194 216 220 223
213 181 226 241 253 261 226 284 115 147 182 192 194 197 197 194 191 189 190 189 192 191 187 183 184 188 190 195 192 198 194 178 171 173 163 185 174 184 189 186 193 203 209 207 225 214 234 234 246
175 184 202 227 245 246 280 277 89 118 174 178 182 189 191 190 187 186 185 184 188 189 189 186 184 188 192 198 202 207 208 206 195 197 190 198 190 190 190 196 202 211 216 213 221 229 230 244 255
208 225 230 228 226 229 187 262 36 62 139 181 179 181 182 182 182 182 182 183 187 188 189 189 188 191 194 199 205 207 212 213 214 220 209 221 210 199 192 209 211 217 215 216 220 225 243 240 242
217 235 252 266 268 230 199 242 89 96 156 168 169 170 172 177 179 182 183 183 186 187 189 190 191 196 197 200 204 209 215 221 218 221 237 227 235 217 193 213 218 223 223 219 215 226 227 236 243
216 233 257 256 263 264 223 202 194 155 171 169 165 164 171 176 177 182 183 183 185 186 188 191 190 194 200 202 201 207 215 228 231 225 233 235 232 224 205 214 218 223 224 222 220 230 231 232 236
249 230 230 246 257 255 228 225 207 173 184 174 172 171 171 175 178 181 182 180 183 185 185 188 189 190 198 203 210 203 206 214 224 235 229 242 241 240 223 222 223 227 230 224 226 230 225 230 234
206 219 236 245 259 264 255 236 92 179 187 182 178 172 167 174 176 176 177 176 176 177 178 180 184 186 191 198 200 206 204 205 209 215 226 232 238 231 229 230 228 228 229 227 228 239 239 238 239
229 231 225 235 241 257 268 245 102 144 164 171 171 162 164 172 172 169 167 169 173 176 179 178 182 184 186 187 189 194 197 202 208 213 224 229 231 235 234 234 234 237 233 229 229 237 240 243 243
Height
1496 1496 1496 1498 1492 1491 1499 1500 1498 1500 1503 1507 1507 1507 1507 1509 1511 1519 1521 1519 1519 1518 1517 1516 1514 1513 1513 1512 1512 1511 1511 1511 1511 1511 1511 1511 1511 1512 1514 1515 1516 1518 1520 1521 1523 1525 1526 1528 1530
1498 1497 1499 1495 1488 1498 1505 1501 1502 1504 1507 1509 1509 1510 1510 1513 1517 1519 1520 1520 1520 1519 1519 1518 1516 1515 1514 1514 1513 1513 1512 1512 1512 1512 1512 1511 1511 1512 1514 1515 1517 1518 1520 1522 1523 1525 1527 1529 1531
1498 1498 1498 1489 1491 1500 1507 1504 1505 1508 1510 1509 1510 1512 1514 1517 1520 1521 1521 1521 1521 1521 1520 1519 1517 1516 1516 1515 1515 1514 1514 1513 1513 1513 1513 1512 1510 1511 1513 1516 1518 1519 1521 1522 1524 1526 1527 1529 1531
1500 1499 1495 1491 1499 1500 1502 1504 1506 1508 1510 1511 1511 1514 1518 1521 1522 1523 1522 1523 1523 1522 1522 1520 1519 1518 1517 1517 1516 1515 1515 1515 1515 1515 1514 1512 1510 1511 1513 1516 1518 1520 1521 1523 1525 1526 1527 1529 1531
1500 1495 1490 1495 1501 1502 1503 1505 1507 1507 1510 1513 1513 1515 1520 1523 1523 1523 1524 1524 1524 1524 1524 1523 1521 1520 1519 1518 1517 1517 1517 1516 1516 1516 1515 1514 1513 1513 1515 1517 1519 1520 1522 1524 1525 1526 1527 1529 1531
1498 1490 1493 1501 1504 1503 1505 1508 1507 1509 1512 1514 1515 1516 1522 1524 1525 1525 1525 1525 1526 1525 1525 1524 1522 1521 1520 1520 1519 1519 1518 1518 1518 1518 1517 1517 1517 1516 1517 1519 1520 1522 1523 1525 1526 1527 1528 1530 1532
1497 1491 1495 1498 1503 1504 1507 1509 1509 1510 1513 1516 1517 1517 1523 1526 1526 1526 1526 1527 1527 1527 1526 1526 1525 1524 1523 1522 1521 1520 1520 1520 1519 1519 1519 1519 1519 1519 1520 1521 1522 1523 1524 1525 1526 1527 1528 1530 1532
1499 1493 1495 1498 1502 1506 1508 1510 1511 1512 1515 1518 1519 1518 1523 1527 1527 1527 1528 1528 1528 1528 1527 1527 1526 1526 1526 1525 1523 1523 1522 1521 1521 1521 1521 1521 1521 1522 1522 1523 1524 1525 1525 1526 1527 1528 1529 1531 1533
1499 1493 1498 1499 1501 1506 1508 1510 1513 1515 1517 1519 1520 1522 1524 1527 1528 1529 1529 1529 1529 1529 1528 1528 1528 1527 1527 1527 1525 1525 1524 1523 1523 1523 1523 1523 1524 1525 1525 1525 1525 1526 1527 1528 1528 1529 1530 1532 1534
1497 1496 1500 1500 1501 1504 1508 1509 1512 1514 1517 1520 1522 1524 1526 1527 1529 1529 1530 1530 1530 1530 1529 1529 1529 1529 1529 1528 1527 1527 1527 1526 1525 1525 1525 1525 1525 1526 1527 1526 1527 1528 1528 1529 1530 1530 1532 1535 1537
1498 1499 1501 1503 1504 1506 1508 1510 1513 1512 1515 1519 1522 1525 1527 1528 1530 1530 1531 1531 1531 1531 1531 1531 1530 1529 1530 1529 1529 1528 1528 1527 1527 1527 1527 1527 1527 1528 1528 1529 1529 1530 1530 1532 1533 1534 1535 1537 1538
1501 1503 1504 1505 1507 1507 1509 1511 1513 1514 1518 1521 1524 1526 1528 1529 1530 1531 1532 1532 1532 1532 1532 1532 1531 1530 1530 1530 1530 1530 1529 1529 1529 1528 1528 1529 1529 1529 1530 1530 1531 1532 1533 1533 1535 1535 1537 1538 1540
1503 1504 1507 1508 1509 1510 1511 1513 1515 1518 1521 1523 1525 1527 1528 1530 1531 1532 1532 1533 1533 1533 1533 1532 1532 1531 1531 1530 1530 1531 1531 1531 1530 1530 1530 1530 1530 1531 1531 1532 1532 1534 1534 1535 1536 1537 1538 1540 1541
1504 1505 1507 1508 1510 1512 1512 1514 1516 1520 1522 1524 1526 1527 1529 1530 1531 1532 1533 1533 1534 1534 1534 1533 1533 1532 1531 1531 1531 1531 1532 1531 1532 1531 1531 1531 1532 1532 1532 1533 1534 1535 1536 1537 1538 1539 1540 1542 1543
1506 1505 1506 1508 1509 1511 1511 1513 1515 1520 1522 1524 1526 1528 1529 1531 1532 1532 1533 1534 1534 1534 1534 1534 1534 1533 1532 1532 1532 1533 1533 1533 1533 1533 1532 1533 1533 1533 1534 1535 1536 1536 1537 1538 1539 1541 1542 1543 1544
1502 1501 1505 1507 1508 1510 1510 1513 1515 1519 1521 1523 1525 1528 1529 1531 1532 1533 1533 1534 1534 1535 1535 1535 1535 1534 1533 1533 1533 1534 1534 1534 1534 1535 1535 1534 1535 1535 1536 1536 1537 1538 1539 1540 1541 1542 1543 1544 1545
1500 1503 1505 1507 1507 1507 1507 1510 1514 1518 1520 1522 1524 1526 1528 1530 1532 1532 1533 1534 1534 1535 1535 1535 1535 1535 1534 1534 1534 1534 1535 1535 1536 1536 1537 1536 1536 1537 1538 1538 1539 1540 1541 1542 1543 1544 1545 1545 1546
1504 1502 1504 1506 1505 1506 1507 1507 1511 1516 1518 1519 1522 1525 1527 1529 1531 1532 1533 1534 1534 1535 1535 1535 1535 1535 1534 1534 1535 1536 1536 1537 1537 1537 1537 1538 1538 1538 1539 1540 1540 1542 1542 1543 1544 1544 1545 1546 1547
1499 1501 1504 1504 1504 1505 1506 1506 1507 1512 1516 1517 1520 1523 1525 1527 1530 1531 1532 1533 1534 1534 1534 1535 1535 1535 1535 1535 1536 1537 1537 1538 1538 1539 1539 1539 1539 1539 1540 1541 1541 1542 1544 1544 1545 1546 1547 1547 1548
1500 1503 1504 1504 1504 1505 1504 1504 1504 1508 1512 1515 1517 1520 1523 1526 1528 1530 1531 1532 1533 1534 1534 1535 1535 1535 1535 1536 1536 1537 1538 1539 1539 1539 1539 1539 1540 1540 1541 1541 1543 1543 1544 1544 1545 1546 1548 1549 1549
1501 1501 1502 1505 1504 1502 1503 1503 1503 1506 1510 1513 1516 1518 1520 1523 1525 1528 1529 1531 1532 1533 1533 1534 1535 1535 1536 1536 1537 1538 1538 1539 1540 1540 1540 1540 1540 1541 1541 1542 1543 1544 1545 1545 1546 1546 1547 1549 1549
1503 1498 1500 1502 1505 1503 1504 1511 1502 1501 1506 1509 1512 1515 1517 1520 1523 1525 1527 1529 1530 1532 1533 1533 1534 1535 1535 1536 1538 1538 1539 1540 1540 1540 1541 1541 1541 1541 1542 1542 1543 1543 1545 1545 1546 1547 1547 1548 1549
1498 1498 1499 1500 1502 1503 1502 1507 1502 1499 1503 1504 1507 1511 1514 1517 1520 1522 1525 1527 1529 1531 1532 1533 1533 1534 1535 1536 1537 1538 1539 1539 1540 1540 1540 1541 1541 1541 1542 1542 1542 1543 1544 1544 1545 1545 1546 1547 1548
1498 1500 1500 1499 1498 1512 1506 1508 1506 1497 1499 1500 1504 1508 1511 1514 1517 1520 1523 1525 1527 1529 1530 1532 1532 1533 1534 1535 1536 1536 1538 1538 1539 1539 1540 1540 1541 1541 1541 1541 1541 1542 1543 1543 1543 1544 1544 1545 1545
1498 1503 1511 1514 1513 1512 1502 1506 1504 1495 1496 1499 1502 1505 1509 1512 1515 1518 1521 1523 1525 1527 1529 1530 1531 1531 1533 1534 1535 1536 1536 1537 1538 1538 1539 1539 1540 1540 1540 1541 1540 1541 1540 1541 1541 1542 1543 1543 1543
1495 1496 1512 1523 1517 1507 1503 1505 1497 1494 1497 1499 1502 1504 1507 1510 1513 1516 1518 1521 1523 1525 1526 1528 1529 1530 1531 1532 1533 1534 1535 1536 1537 1537 1538 1538 1539 1539 1538 1538 1539 1539 1539 1539 1539 1540 1540 1540 1541
1495 1494 1489 1500 1505 1509 1502 1498 1494 1493 1496 1498 1500 1503 1505 1508 1511 1514 1516 1518 1520 1522 1524 1526 1527 1529 1530 1531 1532 1532 1533 1534 1535 1535 1535 1536 1536 1537 1536 1536 1536 1536 1537 1537 1537 1538 1537 1538 1538
1489 1488 1495 1501 1517 1517 1508 1502 1497 1495 1494 1496 1498 1501 1504 1507 1510 1512 1514 1516 1518 1520 1522 1524 1526 1527 1528 1530 1531 1532 1532 1532 1533 1534 1533 1534 1534 1534 1534 1534 1534 1534 1535 1535 1535 1535 1535 1535 1535
1494 1493 1493 1494 1498 1509 1514 1504 1486 1490 1491 1494 1497 1500 1503 1506 1508 1510 1512 1514 1516 1518 1520 1521 1523 1525 1526 1528 1529 1530 1531 1531 1531 1531 1532 1532 1532 1532 1532 1532 1532 1532 1532 1532 1532 1533 1533 1533 1533
1485 1487 1491 1502 1505 1501 1502 1501 1484 1488 1491 1494 1496 1500 1502 1505 1507 1509 1511 1513 1515 1516 1518 1519 1521 1523 1524 1526 1527 1528 1528 1529 1529 1530 1530 1530 1530 1530 1530 1529 1529 1530 1530 1529 1529 1530 1530 1530 1530